Overview Statistics Trail Chart Weather Telemetry Raw packets
 

This is the latest recevied weather packets stored in our database for station/object SV9TNF-52. If no packets are shown the sender has not sent any weather packets the latest 10 day(s).

<< 65 66 67 68 69 70 71 >>
Time Temp. Humidity Pressure Rain* Wind** Luminosity Snow
1788223982 22.78° C 73% 1019 hPa 0 mm 4.92 m/s, 202° - -
1788223682 22.78° C 72% 1019.3 hPa 0 mm 4.92 m/s, 180° - -
1788223382 22.78° C 72% 1019.3 hPa 0 mm 5.81 m/s, 231° - -
1788223082 22.78° C 72% 1019.3 hPa 0 mm 5.81 m/s, 185° - -
1788222782 22.78° C 71% 1019.3 hPa 0 mm 3.13 m/s, 192° - -
1788222482 23.33° C 71% 1019.3 hPa 0 mm 4.92 m/s, 178° - -
1788222182 23.33° C 70% 1019.3 hPa 0 mm 4.47 m/s, 181° - -
1788221882 23.33° C 70% 1019.3 hPa 0 mm 8.94 m/s, 209° - -
1788221582 22.78° C 69% 1019.3 hPa 0 mm 4.92 m/s, 194° - -
1788221282 22.78° C 68% 1019.3 hPa 0 mm 6.26 m/s, 230° - -
1788220981 22.78° C 68% 1019.3 hPa 0 mm 4.92 m/s, 195° - -
1788220681 22.78° C 66% 1019.6 hPa 0 mm 4.47 m/s, 185° - -
1788220381 22.78° C 64% 1019.6 hPa 0 mm 4.92 m/s, 173° - -
1788220081 22.78° C 63% 1019.6 hPa 0 mm 4.02 m/s, 192° - -
1788219781 22.78° C 62% 1019.6 hPa 0 mm 8.49 m/s, 174° - -
1788219481 22.78° C 62% 1019.6 hPa 0 mm 6.71 m/s, 184° - -
1788219181 22.22° C 62% 1019.6 hPa 0 mm 4.92 m/s, 287° - -
1788218881 22.22° C 61% 1019.6 hPa 0 mm 5.81 m/s, 199° - -
1788218581 22.22° C 61% 1019.6 hPa 0 mm 5.81 m/s, 192° - -
1788218280 22.22° C 60% 1019.6 hPa 0 mm 3.58 m/s, 177° - -
1788217980 22.78° C 60% 1019.6 hPa 0 mm 5.81 m/s, 161° - -
1788217680 22.78° C 60% 1019.6 hPa 0 mm 7.15 m/s, 159° - -
1788217380 22.22° C 60% 1019.6 hPa 0 mm 7.15 m/s, 211° - -
1788217080 22.78° C 59% 1019.6 hPa 0 mm 4.92 m/s, 213° - -
1788216781 22.78° C 58% 1019.6 hPa 0 mm 6.71 m/s, 188° - -

* Rain latest hour (hover to see other rain measurements)
** Current wind speed in m/s (hover to see current wind gust speed)